Regional Weather Roundup
Issued by NWS Jackson, KY

Home | Current Version | Previous Version | Text Only | Print | Product List | Glossary On
Versions: 1 2 3 4 5 6 7 8 9 10 11 12 13 14 15 16 17 18 19 20 21 22 23 24 25 26 27 28 29 30 31 32 33 34 35 36 37 38 39 40 41 42 43 44 45 46 47 48 49 50
000
ASUS43 KJKL 201319
RWRJKL

EAST KENTUCKY HOURLY WEATHER ROUNDUP
NATIONAL WEATHER SERVICE JACKSON KY
900 AM EDT MON OCT 20 2014

NOTE: "FAIR" INDICATES FEW OR NO CLOUDS BELOW 12,000 FEET WITH
NO SIGNIFICANT WEATHER AND/OR OBSTRUCTIONS TO VISIBILITY.

* THESE REPORTS ARE NOT UNDER NWS QUALITY CONTROL AND MAY NOT
  REPORT WEATHER SUCH AS PRECIPITATION AND FOG.

KYZ079-080-083-085-087-088-110-112-115-119-120-201400
...EASTERN KENTUCKY...

CITY           SKY/WX    TMP DP  RH WIND       PRES   REMARKS
JACKSON        MOSUNNY   45  41  86 VRB3      30.08R
LONDON         SUNNY     44  41  89 CALM      30.10R
SOMERSET*      FOG       41  41 100 CALM      30.11R VSB 3/4
MONTICELLO*    FOG       46  45  93 CALM      30.11R VSB 1/2
WILLIAMSBURG*    N/A    N/A N/A N/A CALM        N/A
MIDDLESBORO*   PTSUNNY   41  40  99 CALM      30.13R
HARLAN APT*    CLOUDY    41  41 100 CALM      30.12R VSB<1/4
HAZARD APT*      N/A     43  43 100 CALM      30.10R
BLACK MTN*       N/A     46  41  81 S3          N/A
PIKEVILLE APT* SUNNY     43  39  87 S3        30.09R
BIG SANDY*     SUNNY     43  41  94 CALM      30.08R
MOREHEAD APT*  CLOUDY    46  43  87 S5        30.08S
ASHLAND*       SUNNY    N/A N/A N/A CALM        N/A
$$

KYZ035-036-041-042-044-050-067-078-099-201400
...CENTRAL KENTUCKY...

CITY           SKY/WX    TMP DP  RH WIND       PRES   REMARKS
MT STERLING*   CLOUDY    45  43  93 SW6       30.07S
FLEMING/MASON* MOSUNNY   45  41  87 S5        30.05F
DANVILLE*      PTSUNNY   45  45 100 S5        30.07S
RICHMOND*      PTSUNNY   46  41  81 S7        30.06F
LEXINGTON      CLOUDY    50  43  77 S7        30.05S
FRANKFORT      LGT RAIN  47  44  90 SW5       30.04R
$$

KYZ091>093-OHZ055-061-077-WVZ005-015-034-035-042-201400
...SOUTHERN OHIO/WEST VIRGINIA...

CITY           SKY/WX    TMP DP  RH WIND       PRES   REMARKS
COVINGTON      CLOUDY    49  43  80 S8        30.01S
COLUMBUS       CLOUDY    47  41  80 S6        29.99S
DAYTON         PTSUNNY   49  43  80 S12       29.97S
WILMINGTON     CLOUDY    47  42  83 S8        30.00S
HUNTINGTON     PTSUNNY   42  41  96 S6        30.07R
CHARLESTON     PTSUNNY   39  38  96 CALM      30.07S FOG
PINEVILLE*     FOG       38  38 100 MISG      30.16R VSB 1/4
BECKLEY        SUNNY     43  34  70 CALM      30.10R
BLUEFIELD      MOSUNNY   48  35  60 SW3       30.10R
$$

VAZ002-007-008-TNZ017-027-036-066-071-201400
...SOUTHWEST VIRGINIA/EAST TENNESSEE...

CITY           SKY/WX    TMP DP  RH WIND       PRES   REMARKS
WISE*          SUNNY     46  37  71 CALM      30.11R
JONESVILLE*    SUNNY     41  41 100 CALM      30.14R
ABINGDON*      MOSUNNY   45  41  86 CALM      30.11R
BRISTOL        MOSUNNY   44  41  89 CALM      30.13R
KNOXVILLE      MOSUNNY   47  46  97 E3        30.12R FOG
OAK RIDGE      PTSUNNY   45  43  93 CALM      30.14R FOG
CROSSVILLE     SUNNY     49  43  80 VRB3      30.11R
NASHVILLE      MOSUNNY   46  45  96 S5        30.09F
$$

...KEY TO REMARKS...
VSB - VISIBILITY IN MILES
WCI - WIND CHILL INDEX
HX  - HEAT INDEX

$$



USA.gov is the U.S. government's official web portal to all federal, state and local government web resources and services.